sat.trackr.live / text

‹ back to catalog

STARLINK-33582

NORAD 62783 · 2025-015AB

PAYLOAD ACTIVE UNKNOWN

§ Identity

Operator
Country
US
Launch date
2025-01-21
Launch site
AFWTR
Launch vehicle
Mass (kg)
RCS (m²)

Purposes: comms

External: N2YO · Heavens-Above · Gunter

§ Orbital elements

Epoch: 2026-09-21T22:00:03.000096Z

Period
92.04 min
Inclination
53.1445°
Eccentricity
0.0006948
Mean motion
15.64517587 rev/d
Perigee alt
369.9 km
Apogee alt
379.3 km
Semi-major
6,752.8 km
B*
6.4673e-4
RAAN
113.7010°
Arg perigee
205.7684°
Mean anomaly
228.6461°
Rev number
588

§ Raw data

STARLINK-335821 62783U 25015AB  26264.91670139  .00063482  00000+0  64673-3 0  99962 62783  53.1445 113.7010 0006948 205.7684 228.6461 15.64517587  5881

JSON: /api/v1/satellites/62783 · /tle

For live sub-satellite position, see the globe view (requires WebGL).

§ Visibility from observer

Set your observer location to see the next 7 days of passes ≥ 10°. The values pass through the URL so the page stays shareable.

No JS? Fill the form by hand. The geolocation button needs JavaScript.